Regional Weather Roundup
Issued by NWS Albany, NY

Home | Current Version | Previous Version | Text Only | Print | Product List | Glossary On
Versions: 1 2 3 4 5 6 7 8 9 10 11 12 13 14 15 16 17 18 19 20 21 22 23 24 25 26 27 28 29 30 31 32 33 34 35 36 37 38 39 40 41 42 43 44 45 46 47 48 49 50
000
ASUS41 KALY 042210
RWRALY

NEW YORK STATE HOURLY WEATHER ROUNDUP
NATIONAL WEATHER SERVICE ALBANY NY
600 PM EDT TUE AUG 04 2015

NOTE: "FAIR" INDICATES FEW OR NO CLOUDS BELOW 12,000 FEET WITH NO
SIGNIFICANT WEATHER AND/OR NO OBSTRUCTIONS TO VISIBILITY.

NYZ032-033-038>043-046>054-057>066-NYZ062>081-042300-
EAST


CITY           SKY/WX    TMP DP  RH WIND       PRES   REMARKS
ALBANY         PTSUNNY   77  58  51 W9        29.85R
GLENS FALLS    PTSUNNY   80  53  39 W12G18    29.82R
POUGHKEEPSIE   SUNNY     88  54  31 W13       29.82S
NEWBURGH       MOSUNNY   86  55  35 W18       29.86R
MONTGOMERY     SUNNY     84  57  39 W10       29.85R
WHITE PLAINS   MOSUNNY   86  54  33 W12       29.85R
ISLIP          MOSUNNY   86  66  51 SW14G21   29.82S
NEW YORK CITY  MOSUNNY   89  55  31 W15G23    29.83S
CENTRAL PARK   MOSUNNY   87  55  33 W8G17     29.87S
$$

NYZ005>009-017-018-044>046-055-056-042300-
CENTRAL


CITY           SKY/WX    TMP DP  RH WIND       PRES   REMARKS
FULTON         MOSUNNY   72  57  59 SW7       29.89S
SYRACUSE       PTSUNNY   71  61  70 W7        29.89S
ROME           PTSUNNY   73  56  54 W14       29.90S
ELMIRA         PTSUNNY   79  57  46 NW7       29.90S
BINGHAMTON     SUNNY     72  58  61 W7        29.93F
MONTICELLO     MOSUNNY   75  59  57 NW12G23   29.93R
$$

NYZ026>034-041>043-042300-
NORTH


CITY           SKY/WX    TMP DP  RH WIND       PRES   REMARKS
WATERTOWN      PTSUNNY   72  55  55 SW12G21   29.85F
FORT DRUM      NOT AVBL
MASSENA        MOSUNNY   75  59  57 W6        29.82R
SARANAC LAKE   PTSUNNY   68  54  60 W5        29.86R
PLATTSBURGH    MOSUNNY   75  59  57 VRB5      29.80S
$$

NYZ001>004-010>016-019>021-042300-
WEST


CITY           SKY/WX    TMP DP  RH WIND       PRES   REMARKS
BUFFALO        PTSUNNY   71  58  63 NW14G29   29.91R THUNDER
DUNKIRK        MOSUNNY   77  57  50 W16G25    29.91S
JAMESTOWN      SUNNY     73  48  40 W12G22    29.96S
WELLSVILLE     MOSUNNY   73  51  46 W12       29.97S
ROCHESTER      CLOUDY    69  62  78 N6        29.90R
PENN YAN       MOSUNNY   77  53  43 W9        29.91R
$$

             KEY
       WCI = WIND CHILL INDEX
       VSB = VISIBILITY
       HX  = HEAT INDEX
$$


USA.gov is the U.S. government's official web portal to all federal, state and local government web resources and services.